�������l�o���
Date,Time,MP-1(��Sv/h),MP-2(��Sv/h),MP-3(��Sv/h),MP-4(��Sv/h),MP-5(��Sv/h),MP-6(��Sv/h),MP-7(��Sv/h),MP-8(��Sv/h),����,����(m/s),���J
2020/07/19,00:00,0.645,0.921,0.583,1.114,0.788,0.385,0.661,0.624,�k�k��,3.3,��
2020/07/19,00:10,0.646,0.920,0.582,1.114,0.787,0.387,0.659,0.624,�k�k��,2.3,��
2020/07/19,00:20,0.646,0.920,0.582,1.111,0.790,0.388,0.661,0.623,��쐼,0.9,��
2020/07/19,00:30,0.646,0.919,0.584,1.113,0.789,0.387,0.662,0.624,��,0.6,��
2020/07/19,00:40,0.645,0.920,0.583,1.114,0.790,0.387,0.661,0.626,-,CALM,��
2020/07/19,00:50,0.646,0.923,0.583,1.112,0.791,0.387,0.660,0.623,-,CALM,��
2020/07/19,01:00,0.647,0.920,0.584,1.115,0.791,0.386,0.660,0.624,-,CALM,��
2020/07/19,01:10,0.646,0.920,0.582,1.115,0.788,0.386,0.662,0.624,-,CALM,��
2020/07/19,01:20,0.647,0.920,0.583,1.116,0.788,0.386,0.660,0.625,�쐼,0.9,�L
2020/07/19,01:30,0.646,0.921,0.582,1.115,0.790,0.387,0.658,0.624,�k��,0.6,�L
2020/07/19,01:40,0.647,0.921,0.584,1.113,0.791,0.386,0.660,0.626,���k��,0.9,�L
2020/07/19,01:50,0.646,0.921,0.586,1.112,0.792,0.387,0.662,0.625,�k��,0.8,�L
2020/07/19,02:00,0.648,0.921,0.584,1.118,0.792,0.386,0.660,0.625,�k,0.9,��
2020/07/19,02:10,0.647,0.922,0.586,1.115,0.791,0.387,0.662,0.624,�k�k��,1.1,��
2020/07/19,02:20,0.648,0.919,0.585,1.113,0.791,0.388,0.660,0.625,�k��,1.2,��
2020/07/19,02:30,0.646,0.922,0.584,1.117,0.789,0.388,0.661,0.625,�k��,0.9,��
2020/07/19,02:40,0.648,0.920,0.585,1.113,0.790,0.387,0.662,0.623,�k�k��,1.4,��
2020/07/19,02:50,0.647,0.920,0.583,1.116,0.790,0.387,0.660,0.625,�k�k��,1.2,��
2020/07/19,03:00,0.646,0.922,0.584,1.114,0.792,0.387,0.661,0.624,�k�k��,1.4,��
2020/07/19,03:10,0.647,0.920,0.583,1.115,0.789,0.387,0.661,0.626,���k��,0.8,��
2020/07/19,03:20,0.646,0.920,0.582,1.116,0.792,0.388,0.661,0.626,���k��,0.9,��
2020/07/19,03:30,0.646,0.920,0.583,1.116,0.790,0.388,0.661,0.625,-,CALM,��
2020/07/19,03:40,0.647,0.920,0.583,1.114,0.791,0.386,0.660,0.625,-,CALM,��
2020/07/19,03:50,0.650,0.921,0.586,1.117,0.790,0.387,0.661,0.625,�쓌,0.8,��
2020/07/19,04:00,0.647,0.920,0.584,1.117,0.789,0.387,0.663,0.626,��쓌,0.9,��
2020/07/19,04:10,0.646,0.919,0.584,1.114,0.792,0.388,0.661,0.625,��쓌,1.2,��
2020/07/19,04:20,0.647,0.921,0.583,1.115,0.789,0.388,0.661,0.626,��쓌,0.9,��
2020/07/19,04:30,0.645,0.919,0.584,1.115,0.790,0.386,0.660,0.625,�쓌,0.9,��
2020/07/19,04:40,0.646,0.920,0.585,1.114,0.790,0.386,0.661,0.625,�쓌,1.7,��
2020/07/19,04:50,0.647,0.919,0.583,1.116,0.789,0.387,0.663,0.624,��쓌,0.8,��
2020/07/19,05:00,0.648,0.920,0.585,1.115,0.790,0.388,0.662,0.627,��,0.6,��
2020/07/19,05:10,0.647,0.919,0.585,1.116,0.789,0.387,0.662,0.623,-,CALM,��
2020/07/19,05:20,0.646,0.922,0.582,1.116,0.791,0.388,0.661,0.626,-,CALM,��
2020/07/19,05:30,0.646,0.920,0.584,1.114,0.792,0.387,0.662,0.625,��,0.9,��
2020/07/19,05:40,0.647,0.922,0.583,1.114,0.792,0.387,0.660,0.626,���쓌,0.9,��
2020/07/19,05:50,0.646,0.919,0.585,1.116,0.791,0.387,0.661,0.626,��,0.9,��
2020/07/19,06:00,0.648,0.921,0.584,1.115,0.792,0.388,0.660,0.626,��,0.6,��
2020/07/19,06:10,0.646,0.920,0.584,1.115,0.791,0.386,0.661,0.624,��쐼,0.9,��
2020/07/19,06:20,0.646,0.922,0.585,1.115,0.789,0.388,0.661,0.627,��쐼,1.2,��
2020/07/19,06:30,0.646,0.921,0.585,1.116,0.792,0.386,0.660,0.626,��쐼,0.6,��
2020/07/19,06:40,0.645,0.920,0.581,1.117,0.790,0.386,0.657,0.626,��,0.6,��
2020/07/19,06:50,0.645,0.921,0.584,1.116,0.791,0.385,0.659,0.626,��쓌,1.1,��
2020/07/19,07:00,0.648,0.919,0.585,1.115,0.793,0.387,0.661,0.625,��쓌,0.6,��
2020/07/19,07:10,0.648,0.919,0.583,1.115,0.793,0.387,0.659,0.625,-,CALM,��
2020/07/19,07:20,0.645,0.921,0.585,1.115,0.792,0.387,0.661,0.625,�쐼,0.9,��
2020/07/19,07:30,0.647,0.923,0.584,1.114,0.792,0.387,0.660,0.624,�k��,0.8,��
2020/07/19,07:40,0.646,0.922,0.584,1.116,0.790,0.386,0.660,0.625,-,CALM,��
2020/07/19,07:50,0.647,0.920,0.584,1.118,0.790,0.386,0.661,0.625,��,0.8,��
2020/07/19,08:00,0.645,0.918,0.585,1.115,0.791,0.387,0.661,0.624,���쐼,0.8,��
2020/07/19,08:10,0.647,0.920,0.584,1.115,0.789,0.386,0.660,0.625,���쐼,0.6,��
2020/07/19,08:20,0.647,0.919,0.583,1.115,0.790,0.385,0.660,0.625,��쐼,1.2,��
2020/07/19,08:30,0.648,0.918,0.583,1.117,0.791,0.386,0.660,0.624,��쐼,1.2,��
2020/07/19,08:40,0.647,0.918,0.584,1.116,0.791,0.387,0.660,0.624,��쐼,1.2,��
2020/07/19,08:50,0.645,0.920,0.583,1.117,0.791,0.386,0.661,0.622,�쐼,1.1,��
2020/07/19,09:00,0.647,0.920,0.585,1.117,0.791,0.385,0.661,0.623,�쐼,1.5,��
2020/07/19,09:10,0.648,0.919,0.586,1.119,0.791,0.387,0.661,0.624,��쐼,1.5,��
2020/07/19,09:20,0.646,0.920,0.584,1.115,0.791,0.387,0.661,0.624,��,2.3,��
2020/07/19,09:30,0.647,0.919,0.583,1.118,0.789,0.386,0.662,0.622,��,2.6,��
2020/07/19,09:40,0.647,0.920,0.582,1.115,0.793,0.388,0.661,0.624,��쐼,2.5,��
2020/07/19,09:50,0.647,0.920,0.583,1.115,0.792,0.386,0.662,0.624,��쓌,2.6,��
2020/07/19,10:00,0.648,0.921,0.582,1.116,0.790,0.387,0.661,0.624,��,3.0,��
2020/07/19,10:10,0.648,0.924,0.585,1.115,0.792,0.388,0.660,0.624,��쓌,2.6,��
2020/07/19,10:20,0.649,0.923,0.585,1.115,0.791,0.388,0.661,0.625,��쓌,3.0,��
2020/07/19,10:30,0.646,0.925,0.584,1.115,0.793,0.387,0.661,0.626,��,3.7,��
2020/07/19,10:40,0.649,0.924,0.582,1.113,0.792,0.387,0.662,0.623,��,4.2,��
2020/07/19,10:50,0.649,0.926,0.585,1.114,0.792,0.389,0.662,0.623,��,3.2,��
2020/07/19,11:00,0.650,0.925,0.586,1.114,0.794,0.389,0.662,0.624,��,3.1,��
2020/07/19,11:10,0.649,0.926,0.587,1.117,0.795,0.390,0.663,0.625,��쓌,3.9,��
2020/07/19,11:20,0.651,0.926,0.586,1.115,0.795,0.392,0.663,0.622,��쓌,4.8,��
2020/07/19,11:30,0.650,0.928,0.587,1.116,0.794,0.389,0.663,0.624,�쓌,4.8,��
2020/07/19,11:40,0.650,0.927,0.585,1.116,0.795,0.390,0.663,0.625,��쓌,4.0,��
2020/07/19,11:50,0.650,0.929,0.585,1.116,0.795,0.390,0.663,0.625,��쓌,3.5,��
2020/07/19,12:00,0.652,0.929,0.585,1.118,0.797,0.389,0.664,0.625,��쓌,4.0,��
2020/07/19,12:10,0.651,0.931,0.587,1.116,0.795,0.391,0.664,0.625,��쓌,4.7,��
2020/07/19,12:20,0.651,0.931,0.587,1.116,0.797,0.390,0.665,0.625,�쓌,4.0,��
2020/07/19,12:30,0.651,0.932,0.587,1.120,0.797,0.390,0.664,0.627,��쓌,4.8,��
2020/07/19,12:40,0.653,0.932,0.588,1.116,0.798,0.389,0.665,0.625,��쓌,5.2,��
2020/07/19,12:50,0.653,0.933,0.587,1.117,0.797,0.390,0.665,0.627,��쓌,5.0,��
2020/07/19,13:00,0.654,0.935,0.588,1.119,0.799,0.390,0.665,0.624,��쓌,5.3,��
2020/07/19,13:10,0.652,0.935,0.588,1.119,0.800,0.392,0.665,0.627,��쓌,4.3,��
2020/07/19,13:20,0.654,0.933,0.588,1.121,0.799,0.391,0.666,0.626,��쓌,4.6,��
2020/07/19,13:30,0.651,0.935,0.588,1.119,0.800,0.391,0.665,0.627,��쓌,5.7,��
2020/07/19,13:40,0.653,0.935,0.586,1.121,0.801,0.391,0.665,0.624,��쓌,6.5,��
2020/07/19,13:50,0.652,0.935,0.586,1.121,0.801,0.391,0.666,0.627,��쓌,5.0,��
2020/07/19,14:00,0.652,0.936,0.588,1.121,0.799,0.391,0.665,0.625,��쓌,5.1,��
2020/07/19,14:10,0.652,0.937,0.589,1.123,0.799,0.391,0.666,0.626,��쓌,4.2,��
2020/07/19,14:20,0.653,0.937,0.588,1.122,0.801,0.393,0.666,0.627,��쓌,3.9,��
2020/07/19,14:30,0.653,0.938,0.588,1.122,0.801,0.389,0.666,0.627,��쓌,4.4,��
2020/07/19,14:40,0.654,0.934,0.588,1.122,0.802,0.390,0.667,0.625,�쓌,3.6,��
2020/07/19,14:50,0.653,0.937,0.587,1.121,0.799,0.391,0.667,0.627,�쓌,4.5,��
2020/07/19,15:00,0.652,0.939,0.588,1.122,0.800,0.392,0.666,0.626,�쓌,2.9,��
2020/07/19,15:10,0.654,0.939,0.588,1.121,0.801,0.392,0.669,0.627,��쓌,3.8,��
2020/07/19,15:20,0.653,0.938,0.589,1.122,0.801,0.391,0.668,0.626,�쓌,3.8,��
2020/07/19,15:30,0.654,0.937,0.588,1.125,0.800,0.391,0.668,0.626,�쓌,3.7,��
2020/07/19,15:40,0.653,0.938,0.589,1.122,0.802,0.390,0.668,0.625,��쓌,4.7,��
2020/07/19,15:50,0.653,0.939,0.587,1.125,0.802,0.390,0.669,0.626,��쓌,3.5,��
2020/07/19,16:00,0.654,0.938,0.590,1.122,0.800,0.391,0.666,0.627,��쓌,4.4,��
2020/07/19,16:10,0.654,0.940,0.588,1.122,0.800,0.392,0.668,0.627,��쓌,4.5,��
2020/07/19,16:20,0.653,0.937,0.587,1.123,0.800,0.391,0.667,0.626,��쓌,3.3,��
2020/07/19,16:30,0.654,0.938,0.589,1.126,0.802,0.392,0.667,0.626,��쓌,3.4,��
2020/07/19,16:40,0.655,0.939,0.589,1.125,0.801,0.391,0.669,0.625,��쓌,4.7,��
2020/07/19,16:50,0.655,0.937,0.590,1.124,0.801,0.391,0.667,0.627,��쓌,4.0,��
2020/07/19,17:00,0.654,0.939,0.588,1.124,0.801,0.389,0.666,0.626,��쓌,4.3,��
2020/07/19,17:10,0.654,0.936,0.587,1.124,0.801,0.391,0.666,0.624,��쓌,3.8,��
2020/07/19,17:20,0.654,0.937,0.588,1.125,0.799,0.390,0.667,0.627,��쓌,4.8,��
2020/07/19,17:30,0.654,0.936,0.588,1.124,0.801,0.390,0.667,0.626,��쓌,4.5,��
2020/07/19,17:40,0.654,0.937,0.587,1.126,0.801,0.391,0.668,0.627,��,4.0,��
2020/07/19,17:50,0.652,0.938,0.587,1.126,0.803,0.393,0.667,0.625,��쓌,3.4,��
2020/07/19,18:00,0.653,0.941,0.588,1.126,0.801,0.392,0.667,0.627,��쓌,4.2,��
2020/07/19,18:10,0.653,0.940,0.588,1.125,0.802,0.392,0.666,0.626,��쓌,4.2,��
2020/07/19,18:20,0.654,0.940,0.587,1.125,0.801,0.391,0.667,0.627,��쓌,2.8,��
2020/07/19,18:30,0.654,0.938,0.589,1.125,0.802,0.391,0.666,0.627,��,2.3,��
2020/07/19,18:40,0.655,0.941,0.589,1.127,0.804,0.392,0.667,0.627,��쐼,1.7,��
2020/07/19,18:50,0.654,0.941,0.589,1.124,0.803,0.392,0.667,0.629,��쓌,1.2,��
2020/07/19,19:00,0.656,0.941,0.590,1.127,0.803,0.391,0.667,0.630,��쐼,1.1,��
2020/07/19,19:10,0.656,0.941,0.591,1.127,0.805,0.391,0.667,0.630,��,1.2,��
2020/07/19,19:20,0.656,0.939,0.590,1.126,0.804,0.391,0.668,0.629,��,0.8,��
2020/07/19,19:30,0.656,0.937,0.591,1.125,0.805,0.392,0.667,0.628,���k��,1.5,��
2020/07/19,19:40,0.656,0.940,0.588,1.126,0.808,0.393,0.668,0.628,�k��,1.2,��
2020/07/19,19:50,0.659,0.941,0.590,1.128,0.804,0.393,0.669,0.629,�k��,1.5,��
2020/07/19,20:00,0.655,0.940,0.593,1.127,0.805,0.394,0.669,0.629,�k��,2.6,��
2020/07/19,20:10,0.656,0.939,0.590,1.129,0.806,0.392,0.669,0.629,�k�k��,2.6,��
2020/07/19,20:20,0.655,0.941,0.591,1.127,0.802,0.393,0.668,0.629,�k��,4.6,��
2020/07/19,20:30,0.656,0.940,0.592,1.128,0.804,0.393,0.668,0.630,�k�k��,4.7,��
2020/07/19,20:40,0.655,0.941,0.591,1.127,0.803,0.393,0.668,0.630,�k��,4.6,��
2020/07/19,20:50,0.658,0.941,0.592,1.129,0.806,0.392,0.670,0.628,�k��,3.4,��
2020/07/19,21:00,0.656,0.939,0.591,1.128,0.805,0.392,0.668,0.630,�k�k��,3.1,��
2020/07/19,21:10,0.656,0.937,0.591,1.127,0.806,0.392,0.670,0.627,�k�k��,5.0,��
2020/07/19,21:20,0.655,0.938,0.590,1.130,0.805,0.392,0.669,0.629,�k��,4.4,��
2020/07/19,21:30,0.656,0.937,0.590,1.130,0.806,0.392,0.669,0.628,�k��,2.3,��
2020/07/19,21:40,0.655,0.941,0.592,1.130,0.805,0.393,0.668,0.630,�k��,1.9,��
2020/07/19,21:50,0.653,0.937,0.591,1.128,0.805,0.392,0.669,0.629,�k�k��,1.2,��
2020/07/19,22:00,0.654,0.939,0.591,1.128,0.804,0.392,0.667,0.629,�k,2.8,��
2020/07/19,22:10,0.657,0.938,0.589,1.132,0.806,0.393,0.668,0.629,�k,1.7,��
2020/07/19,22:20,0.657,0.935,0.589,1.129,0.804,0.393,0.669,0.628,�k�k��,2.3,��
2020/07/19,22:30,0.656,0.937,0.590,1.130,0.803,0.392,0.667,0.630,�k�k��,2.3,��
2020/07/19,22:40,0.656,0.937,0.591,1.128,0.806,0.392,0.668,0.627,�k��,2.3,��
2020/07/19,22:50,0.654,0.937,0.591,1.130,0.806,0.392,0.669,0.630,�k��,3.5,��
2020/07/19,23:00,0.656,0.937,0.592,1.128,0.805,0.392,0.668,0.628,�k��,3.0,��
2020/07/19,23:10,0.655,0.938,0.590,1.130,0.803,0.391,0.668,0.629,�k��,2.6,��
2020/07/19,23:20,0.657,0.938,0.592,1.131,0.806,0.392,0.670,0.630,�k��,2.0,��
2020/07/19,23:30,0.656,0.936,0.593,1.128,0.805,0.392,0.668,0.629,�k��,0.9,��
2020/07/19,23:40,0.656,0.940,0.592,1.131,0.806,0.393,0.669,0.630,�k�k��,0.9,��
2020/07/19,23:50,0.657,0.938,0.592,1.130,0.805,0.394,0.669,0.629,��,1.4,��
